Home > Weather > Öhringen > Past weeks

Flag for Germany Weather for the Past 2 Weeks in Öhringen, Baden-Württemberg, Germany

Now
50 °F

Passing clouds.


Feels Like: 46 °F
Forecast: 31 / 59 °F
Wind: 9 mph from Southwest

Location: Niederstetten

Current Time: Apr 29, 2016 at 12:53:45 PM

Latest Report: Apr 29, 2016 at 11:20 AM


Visibility: N/A

Pressure: 30.07 "Hg

Humidity: 47%

Dew Point: 30 °F

Location of ÖhringenLocation

Historic Weather in Öhringen — Graph

°F

Öhringen Temperature Yesterday

Maximum temperature yesterday: 46 °F (at 6:20 PM)
Minimum temperature yesterday: 30 °F (at 4:20 AM)
Average temperature yesterday: 38 °F

High & Low Weather Summary for the Past Weeks

 TemperatureHumidityPressure
High63 °F (Apr 21, 3:20 PM)100% (Apr 16, 9:20 AM)30.39 "Hg (Apr 16, 9:20 AM)
Low30 °F (Apr 24, 6:20 AM)30% (Apr 20, 3:20 PM)29.50 "Hg (Apr 26, 5:20 AM)
Average43 °F75%29.92 "Hg
* Reported Apr 14 11:20 AM — Apr 29 11:20 AM, Öhringen, Weather by CustomWeather, © 2016

Note: Actual official high and low records may vary slightly from our data, if they occured in-between our weather recording intervals... More about our weather records

Advertising

Öhringen Weather History for the Previous 24 Hours

Scroll right to see more
 ConditionsComfort  
Time TempWeatherWind HumidityBarometerVisibility
11:20 AM
Fri, Apr 29
50 °FPassing clouds.9 mph47%30.07 "HgN/A
10:20 AM48 °FPassing clouds.9 mph54%30.07 "HgN/A
9:20 AM45 °FPassing clouds.7 mph66%30.07 "HgN/A
8:20 AM41 °FPassing clouds.7 mph76%30.07 "HgN/A
7:20 AM36 °FPassing clouds.6 mph81%30.04 "HgN/A
6:20 AM32 °FPassing clouds.5 mph87%30.04 "HgN/A
5:20 AM32 °FPassing clouds.6 mph87%30.04 "HgN/A
4:20 AM32 °FChilly.7 mph87%30.04 "HgN/A
3:20 AM34 °FChilly.2 mph81%30.04 "HgN/A
2:20 AM34 °FChilly.6 mph75%30.04 "HgN/A
1:20 AM34 °FChilly.5 mph75%30.04 "HgN/A
12:20 AM36 °FChilly.3 mph70%30.04 "HgN/A
11:20 PM
Thu, Apr 28
36 °FPassing clouds.3 mph70%30.04 "HgN/A
10:20 PM37 °FPassing clouds.3 mph70%30.04 "HgN/A
9:20 PM41 °FPassing clouds.5 mph61%30.01 "HgN/A
8:20 PM43 °FPassing clouds.5 mph57%30.01 "HgN/A
7:20 PM46 °FPassing clouds.7 mph46%29.98 "HgN/A
6:20 PM46 °FPassing clouds.7 mph50%29.98 "HgN/A
5:20 PM45 °FPassing clouds.10 mph46%29.98 "HgN/A
4:20 PM45 °FPassing clouds.8 mph57%29.98 "HgN/A
3:20 PM45 °FScattered showers. Scattered clouds.10 mph57%29.98 "HgN/A
2:20 PM43 °FScattered clouds.7 mph53%29.98 "HgN/A
1:20 PM41 °FBroken clouds.9 mph66%29.98 "HgN/A
12:20 PM41 °FSprinkles. Broken clouds.7 mph70%29.98 "HgN/A
Weather by CustomWeather, © 2016

See weather overviewHow to use our weather pages